EHI
0 0 0 0 0 0 0 0 0 1 4 4 2 2 3 3 3 4 4 5 6 7 8 9 11 12 11 9 6 3 1 0 0 0 0 0 1 0 0 0 0 0 0
0 0 0 0 0 0 0 0 0 1 3 3 1 1 1 2 2 2 2 3 5 6 7 7 9 10 9 7 5 3 1 0 1 1 0 0 1 0 0 0 0 0 0
0 0 0 0 0 0 0 0 0 1 2 2 1 0 1 1 3 3 1 2 3 4 3 4 7 9 8 6 4 2 1 1 3 2 1 0 0 0 0 0 0 0 0
0 0 0 0 0 0 0 0 0 0 1 1 0 0 1 2 3 3 2 1 2 1 1 3 6 8 9 7 6 4 2 2 4 3 1 0 0 0 0 0 0 0 0
0 0 0 0 0 0 0 0 0 0 0 0 0 0 1 1 1 1 1 1 1 0 1 2 4 6 7 7 7 5 3 2 2 1 0 0 0 1 0 0 0 0 0
0 0 0 0 0 0 0 0 0 0 0 0 0 0 0 0 0 0 0 0 0 0 0 1 1 2 3 3 4 4 4 3 1 0 0 0 0 0 0 0 0 0 0
0 0 0 1 1 1 0 0 0 0 0 0 0 0 0 0 0 0 0 0 0 0 0 0 0 0 0 1 1 2 3 2 1 0 0 0 0 0 0 0 0 0 0
0 0 0 1 2 2 1 1 0 0 0 0 0 0 0 0 0 0 0 1 1 0 0 0 0 0 0 1 1 1 1 1 1 0 0 0 0 0 0 0 0 0 1
0 0 0 1 1 2 2 1 1 0 0 0 0 0 0 0 0 0 0 1 2 1 1 0 0 0 0 0 0 0 0 0 0 0 0 0 0 0 0 0 0 0 1
0 0 0 0 1 2 1 1 0 0 0 0 1 0 0 0 0 0 0 1 2 2 1 0 0 0 0 0 0 0 0 0 0 0 0 0 0 0 0 0 0 0 1
0 0 0 0 1 1 0 0 0 0 0 0 1 1 2 2 1 0 0 0 1 1 1 0 0 0 0 0 0 1 0 0 0 0 0 0 0 0 0 0 0 0 0
0 0 0 0 0 0 0 0 0 0 0 1 2 3 4 4 3 1 0 0 0 0 0 0 1 0 0 0 0 0 0 0 0 0 0 0 0 0 0 0 0 0 0
0 0 0 0 0 0 0 0 0 0 0 1 3 4 4 4 3 2 1 0 0 0 0 0 0 0 0 0 0 0 0 0 0 0 0 0 0 0 0 0 0 0 0
0 0 0 0 0 0 0 0 0 0 0 0 1 2 2 3 3 3 1 0 0 0 0 0 0 0 0 0 0 0 0 0 0 0 0 0 0 0 0 1 1 1 0
0 0 0 0 0 0 0 0 0 0 0 0 0 0 1 2 2 2 2 1 0 0 0 0 0 0 0 0 0 0 0 0 0 0 0 0 0 0 0 1 2 1 0
0 0 0 0 0 0 0 0 0 0 0 0 0 0 0 1 1 1 1 1 0 0 0 0 0 0 0 0 0 0 0 0 0 0 0 0 0 0 0 1 1 1 1
0 0 0 0 0 0 0 0 0 0 0 0 0 0 0 0 0 0 0 0 0 0 0 0 0 0 0 0 0 0 0 0 0 0 0 0 0 0 0 0 0 1 1
0 0 0 0 0 0 0 0 0 0 0 0 0 0 0 0 0 0 0 0 0 0 0 0 0 0 0 0 0 0 0 0 0 0 0 0 0 0 0 0 0 0 1
0 0 0 0 0 0 0 0 0 0 0 0 0 0 0 0 0 0 0 0 0 0 0 0 0 0 0 0 0 0 0 0 0 0 0 0 0 0 0 0 0 0 0
0 0 0 0 0 0 0 0 0 0 0 0 0 0 0 0 0 0 0 0 0 0 0 0 0 0 0 0 0 0 0 0 0 0 0 0 0 0 0 0 0 0 0
0 0 0 0 0 0 0 0 0 0 0 0 0 0 0 0 0 0 0 0 0 0 0 0 0 0 0 0 0 0 0 0 0 0 0 0 0 0 0 0 0 0 0
0 0 0 0 0 0 0 0 0 0 0 0 0 0 0 0 0 0 0 0 0 0 0 0 0 0 0 0 0 0 0 0 0 0 0 0 0 0 0 0 0 0 0
0 0 0 0 0 0 0 0 0 0 0 0 0 0 0 0 0 0 0 0 0 0 0 0 0 0 0 0 0 0 0 0 0 0 0 0 0 0 0 0 0 0 0
0 0 0 0 0 0 0 0 0 0 0 0 0 0 0 0 0 0 0 0 0 0 0 0 0 0 0 0 0 0 0 0 0 0 0 0 0 0 0 0 0 0 0
0 0 0 0 0 0 0 0 0 0 0 0 0 0 0 0 0 0 0 0 0 0 0 0 0 0 0 0 0 0 0 0 0 0 0 0 0 0 0 0 0 0 0
0 0 0 0 0 0 0 0 0 0 0 0 0 0 0 0 0 0 0 0 0 0 0 0 0 0 0 0 0 0 0 0 0 0 0 0 0 0 0 0 0 0 0
Wind_Speed
3 4 9 10 10 10 10 10 10 10 10 10 10 10 9 9 9 8 7 7 6 6 6 6 7 7 8 8 8 7 8 8 8 8 8 8 7 7 8 8 7 5 9
5 4 10 10 10 10 9 9 9 8 8 8 8 8 8 8 8 7 7 6 6 6 5 5 6 6 6 6 6 6 6 7 7 7 7 7 7 7 7 7 7 4 8
5 4 7 10 10 10 9 9 8 8 8 7 8 8 8 7 7 7 6 6 6 5 5 5 5 5 5 5 5 5 5 5 6 6 6 3 3 7 7 7 7 7 7
6 4 5 9 9 9 9 8 8 8 7 7 7 7 7 7 6 6 6 6 5 5 5 4 4 4 4 4 4 4 4 4 5 6 3 2 2 6 6 6 6 7 6
4 4 5 9 8 8 8 8 8 7 8 8 7 7 7 6 6 6 5 5 5 4 4 4 3 3 3 3 3 3 4 4 5 5 3 2 2 5 6 6 6 6 6
3 3 3 8 8 8 8 8 8 8 8 8 8 7 7 6 6 6 5 5 5 4 4 3 3 3 2 2 2 2 3 4 5 3 2 2 1 4 5 5 6 5 6
1 1 2 6 7 8 9 9 9 9 9 8 8 8 7 7 7 6 6 6 5 4 4 3 3 3 2 1 1 2 2 5 4 2 2 1 1 4 5 5 6 5 6
4 3 3 2 5 7 8 9 10 10 10 9 9 9 8 8 8 7 7 6 6 5 5 4 4 3 3 1 0 1 1 3 4 2 1 1 2 4 4 5 6 6 6
7 6 5 5 4 5 7 8 9 10 10 10 10 10 9 9 9 8 8 7 7 6 6 5 5 4 3 3 2 1 0 2 3 1 2 1 3 4 4 5 5 6 6
7 7 6 6 5 5 5 7 9 10 11 11 11 11 11 10 10 10 9 8 8 8 7 7 6 5 4 4 3 2 1 2 2 1 1 2 4 4 5 5 6 6 6
7 6 5 5 5 5 5 6 7 8 9 9 9 11 10 5 5 6 8 9 10 9 9 8 7 6 5 3 3 2 1 1 1 1 1 3 4 5 5 6 6 6 6
6 6 4 5 5 4 4 4 4 4 4 4 3 5 4 4 4 6 7 11 11 11 10 9 9 7 4 1 1 1 1 1 1 1 2 5 5 5 6 6 6 6 6
4 5 5 5 5 4 3 3 2 2 3 3 3 4 4 3 3 4 3 5 6 8 5 5 5 2 2 2 1 1 1 1 1 1 2 6 6 6 6 7 7 6 6
4 5 5 5 4 4 4 3 2 2 2 2 3 3 3 3 3 4 3 3 3 2 3 3 2 3 3 3 3 2 2 2 2 2 2 6 6 7 7 7 7 7 7
5 5 6 5 5 4 4 4 3 3 3 3 3 2 3 3 4 4 3 3 4 3 3 4 4 4 4 3 3 4 4 4 4 3 2 5 6 7 8 8 8 8 7
5 6 6 6 5 4 4 4 4 4 3 3 3 3 4 3 3 3 4 4 4 4 4 4 5 4 3 3 4 4 5 4 4 4 3 4 7 7 8 9 9 9 8
5 6 6 6 5 5 5 5 4 4 4 3 3 4 4 4 4 3 4 4 4 4 4 3 4 3 3 3 4 4 4 5 4 5 4 3 3 6 8 9 9 9 9
5 6 6 7 7 6 5 5 4 4 4 3 3 3 4 5 5 4 4 4 4 3 3 3 3 3 3 3 3 3 3 3 5 5 4 4 3 3 6 9 9 9 9
5 6 6 7 7 7 7 5 5 4 4 3 3 3 4 5 4 4 4 4 4 3 4 4 3 3 3 3 3 3 3 3 4 5 5 5 5 4 3 5 8 8 8
5 6 6 6 6 7 5 5 4 4 3 3 3 4 4 4 4 4 4 4 4 3 4 4 4 3 2 2 3 2 2 2 3 4 5 5 4 5 5 4 4 5 8
6 6 6 7 6 5 4 4 4 4 4 4 3 4 4 4 4 3 3 3 4 4 5 6 4 4 3 2 2 0 1 1 2 3 3 4 5 5 5 5 4 3 4
6 6 7 7 7 6 4 4 3 4 4 4 4 4 4 4 4 4 4 4 4 4 5 6 5 4 3 4 3 2 1 1 2 3 3 4 5 4 5 6 5 5 4
6 7 7 7 7 6 6 4 4 3 3 3 4 4 4 5 4 4 4 4 4 5 5 6 7 7 5 4 4 4 4 4 2 1 3 4 5 5 5 5 6 6 6
6 6 6 6 7 6 6 5 5 4 4 4 4 4 6 5 5 4 4 5 5 4 5 6 7 6 6 5 4 3 2 3 3 2 1 2 4 5 5 5 6 6 6
6 6 6 6 6 6 6 5 5 5 5 5 5 6 5 4 4 5 4 4 4 4 5 5 5 6 5 6 5 4 3 1 2 3 3 2 2 3 4 5 5 5 6
6 5 5 6 6 6 7 6 6 7 7 7 7 6 5 4 3 4 4 4 4 4 5 6 6 7 6 6 5 5 5 4 4 3 3 2 3 2 2 3 4 5 5
Wind_Direction
184 185 168 158 155 152 150 146 142 138 136 134 133 133 132 130 129 129 127 125 120 117 116 113 109 103 98 93 88 88 90 91 89 89 86 87 93 100 101 98 94 89 97
156 169 169 164 163 161 159 156 153 149 146 144 142 141 140 138 137 137 136 133 129 126 122 120 116 109 102 96 93 90 92 95 94 92 86 79 90 101 104 103 103 104 102
141 156 165 169 170 169 169 168 164 161 159 158 156 152 150 147 146 146 145 142 138 136 133 130 126 119 108 98 93 89 87 98 104 100 86 56 79 102 106 107 110 107 107
144 146 161 172 172 175 176 174 172 169 169 168 166 164 161 158 156 156 155 153 150 147 143 139 134 129 116 104 94 87 84 93 110 107 77 52 63 104 107 111 114 113 113
145 146 170 175 175 178 181 180 179 179 179 179 176 174 172 170 169 169 167 164 163 161 158 151 144 134 124 111 96 84 82 92 111 104 88 66 56 106 109 113 114 117 121
145 150 186 183 183 186 188 190 191 191 191 190 188 187 186 187 188 185 181 178 177 174 174 166 166 158 143 123 106 86 80 101 104 101 98 86 71 113 111 114 116 122 122
124 158 210 202 200 200 201 202 201 201 201 201 201 200 200 201 201 199 200 197 192 191 193 190 196 194 183 155 109 84 85 117 118 116 117 111 143 126 118 117 117 116 118
43 40 9 280 241 228 220 217 214 212 211 211 211 212 212 212 211 212 214 211 207 208 209 208 215 221 223 222 216 85 95 124 137 140 153 194 179 137 119 116 113 109 110
37 34 13 359 336 295 264 245 234 227 224 222 220 221 221 221 220 220 221 222 221 220 221 221 223 231 239 244 253 259 138 123 132 168 187 203 187 150 132 125 118 118 114
38 26 13 1 356 347 325 296 268 251 239 233 231 228 227 229 229 228 225 228 229 228 229 229 229 234 244 251 254 260 196 118 147 181 199 217 199 166 147 133 122 118 115
29 16 8 357 350 343 330 321 302 282 266 252 244 241 234 230 234 235 233 231 235 236 236 235 234 236 240 254 262 258 135 137 174 201 212 227 203 178 155 138 128 123 121
11 359 360 349 339 334 330 329 323 312 296 277 258 248 234 217 221 230 237 240 239 239 240 238 237 236 233 206 284 297 136 196 205 222 224 228 210 186 163 148 139 133 129
348 345 343 336 332 329 318 318 315 311 307 289 274 260 246 228 224 230 226 248 250 248 241 243 243 217 185 189 202 207 215 217 220 231 236 228 211 192 175 161 154 147 141
348 341 335 333 331 328 324 316 303 308 305 297 290 283 266 244 226 221 221 223 228 231 223 215 207 207 204 205 210 220 228 224 222 220 235 232 214 199 186 174 166 160 155
345 337 334 331 331 328 327 319 321 307 299 294 289 283 269 256 242 229 230 222 223 216 212 211 205 207 209 211 215 221 228 228 226 218 227 233 218 205 196 186 177 171 167
336 330 326 326 328 329 322 311 303 298 293 292 288 277 269 263 260 239 236 231 228 220 212 209 203 203 208 205 219 223 227 223 221 213 210 227 220 207 201 194 186 181 176
325 325 327 325 339 332 320 309 306 296 296 291 283 278 272 259 254 249 238 231 227 222 212 203 202 195 205 209 221 226 226 219 212 210 205 202 208 211 204 201 194 189 184
326 326 325 334 335 328 322 312 302 294 292 285 282 278 274 268 256 243 238 235 224 211 204 198 197 197 209 211 217 224 222 212 211 207 200 193 188 194 205 204 196 195 191
321 321 323 327 328 325 321 314 305 299 292 287 284 279 274 269 262 251 240 233 220 208 203 210 197 190 201 213 219 221 218 213 207 204 199 195 188 182 185 205 199 197 196
323 324 323 326 328 326 322 319 314 311 304 298 292 286 282 274 267 255 248 235 218 212 209 204 200 190 195 202 230 234 230 225 205 201 202 195 188 188 184 187 192 202 201
330 331 326 327 326 333 332 329 324 319 312 308 299 292 291 287 277 259 256 240 217 216 217 204 193 191 193 165 136 103 324 270 224 215 198 190 195 194 183 187 184 184 200
321 324 324 326 324 327 321 308 292 290 292 287 294 303 296 291 283 271 249 243 228 221 220 208 191 179 187 172 158 140 188 299 269 223 198 201 202 187 194 197 188 187 186
321 322 325 323 323 322 324 319 316 310 309 316 317 311 304 300 289 273 260 244 233 223 223 214 200 188 186 185 178 162 168 201 215 250 218 207 193 191 199 190 194 192 189
313 317 322 324 323 326 331 332 333 326 316 302 301 295 298 294 292 283 267 249 236 226 226 222 209 201 183 185 185 189 178 161 163 191 265 221 199 198 197 198 199 195 190
313 318 322 328 329 332 337 334 330 324 308 304 305 303 303 299 295 293 280 259 243 233 229 224 212 204 196 188 175 166 170 167 175 161 188 200 200 208 197 197 193 191 193
318 324 329 334 330 335 339 340 338 329 324 325 324 321 315 305 299 303 298 277 255 242 235 225 214 208 206 198 186 171 167 168 184 175 173 179 192 205 193 192 194 193 191